Theta_e
327 327 327 327 327 328 328 327 327 327 327 327 327 328 328 329 329 329 329 329 329 328 327 328 327 326 325 326 326 324 323 322 321 321 320 319 320 319 317 317 317 316
327 326 326 327 327 327 328 328 328 327 327 327 327 328 329 329 329 329 328 328 328 327 328 327 327 326 325 324 324 323 322 320 319 318 317 316 316 316 315 315 315 316
326 326 326 326 326 327 328 329 329 328 327 327 328 328 328 329 329 328 328 328 327 327 327 327 326 324 323 322 321 320 319 317 316 314 314 314 314 314 314 313 312 311
325 326 326 326 326 326 327 328 328 328 328 327 327 328 329 329 328 327 327 322 327 326 326 326 325 323 322 322 320 319 318 317 317 314 314 314 314 314 313 312 309 308
324 325 325 326 326 326 327 327 326 327 326 327 327 327 326 326 326 326 326 326 326 325 324 324 324 323 322 321 319 317 317 315 314 313 313 311 310 312 312 310 308 307
324 325 325 325 325 325 325 325 325 326 326 325 325 325 325 325 325 325 324 323 323 323 322 322 322 321 320 318 317 316 313 312 310 311 311 309 305 308 307 306 305 305
323 323 324 324 324 324 324 324 324 324 324 324 324 324 324 323 324 324 323 322 322 321 321 320 320 319 318 317 314 313 312 312 309 310 309 308 306 305 304 304 304 302
322 322 323 323 323 323 323 323 323 323 323 323 323 323 323 323 322 322 321 321 320 320 319 318 318 318 314 313 312 312 311 311 308 309 308 306 305 304 304 304 303 302
320 321 321 322 322 322 322 322 323 323 322 321 320 319 318 319 319 318 318 318 318 318 318 316 316 315 312 312 312 311 310 308 308 308 307 305 304 303 302 303 303 301
318 319 319 320 320 320 320 320 320 320 318 317 317 315 313 313 315 316 316 316 316 315 315 314 312 312 311 311 313 311 310 308 307 307 306 304 304 302 302 302 300 298
316 316 316 316 317 317 317 317 316 315 313 314 314 313 313 312 311 313 314 314 314 314 313 312 312 311 311 311 311 311 310 308 306 306 306 305 304 303 298 301 300 298
312 313 313 313 314 314 314 314 313 312 311 311 312 313 311 310 310 310 310 311 312 313 312 311 311 310 310 310 310 309 309 307 306 306 305 305 304 303 301 301 299 297
308 309 310 311 311 311 310 310 309 309 309 309 309 310 309 308 308 308 307 309 310 310 310 310 309 309 309 309 308 307 306 305 304 305 305 304 303 301 301 300 299 297
307 308 308 308 309 309 309 309 308 307 308 308 307 307 307 307 307 306 305 306 308 308 308 308 307 306 306 306 306 305 304 304 304 303 301 300 299 298 299 299 298 297
306 306 306 306 306 306 306 306 306 306 305 305 304 305 305 306 306 306 304 303 302 304 304 304 304 304 305 304 304 304 304 303 302 300 299 298 297 296 297 298 297 297
305 305 305 305 305 305 305 305 304 304 303 302 302 302 302 302 302 302 302 302 301 299 300 301 302 303 297 297 299 303 303 302 300 298 297 296 294 293 294 294 295 294
304 304 304 303 304 304 303 302 302 300 299 298 297 297 297 296 297 299 298 298 298 298 297 299 300 300 294 297 298 298 301 300 298 296 295 294 294 292 289 290 292 293
303 302 301 301 300 301 299 297 297 295 295 295 295 294 294 294 294 296 296 296 297 296 296 296 297 294 295 297 297 297 296 297 297 295 294 293 293 293 292 291 290 289
300 298 298 298 297 297 296 295 295 295 294 294 294 294 293 294 295 294 294 294 295 295 295 294 295 293 295 296 296 296 296 295 295 294 293 292 293 293 292 290 288 287
297 297 296 296 295 294 294 294 294 294 293 293 293 292 293 293 293 293 293 293 294 294 294 294 294 292 294 295 295 295 295 295 295 294 294 293 293 293 292 289 288 288
296 296 295 294 293 293 292 293 293 292 292 292 292 292 293 292 292 292 292 292 292 293 293 293 294 292 294 294 295 295 295 294 294 294 293 293 293 293 292 291 291 290
295 295 295 294 293 292 292 292 293 292 291 291 291 292 293 292 291 292 291 291 292 292 293 293 293 292 293 294 294 295 294 294 294 293 292 291 291 292 292 293 292 290
295 295 294 293 293 292 291 291 291 290 291 291 291 291 291 291 292 292 291 291 290 291 292 293 292 291 293 293 293 294 293 292 292 291 290 290 291 292 292 291 290 290
294 294 294 293 291 291 291 291 292 292 290 290 292 290 290 291 292 290 290 290 290 290 292 292 291 290 291 292 293 293 292 291 290 289 289 289 290 291 290 289 288 287
294 294 293 292 291 291 291 290 290 291 291 289 292 292 291 291 289 289 289 289 289 290 288 291 290 290 291 292 293 292 290 291 290 289 288 289 289 287 287 288 288 287
293 291 291 290 290 290 290 290 291 290 289 289 290 291 291 290 290 291 288 289 288 289 289 290 290 290 290 292 292 291 291 290 290 290 289 287 286 285 285 286 288 288
Wind_Speed
17 17 17 16 17 14 15 16 16 15 16 15 15 15 15 14 12 14 12 12 12 11 12 12 11 11 11 11 11 10 11 10 9 8 10 11 11 13 12 12 11 9
19 17 13 13 12 12 12 14 15 14 16 16 15 14 14 12 13 11 13 14 14 14 13 14 13 12 11 9 10 11 10 8 10 7 9 11 10 9 9 10 11 9
17 17 19 16 16 17 14 14 14 13 15 14 13 13 13 11 13 9 10 12 13 16 15 13 12 11 11 10 10 11 9 9 10 8 8 9 8 9 9 10 8 9
17 19 15 17 17 16 14 12 11 11 10 9 10 9 8 7 8 10 13 14 13 12 12 11 12 10 11 12 11 9 10 9 10 9 10 8 8 10 10 10 8 7
18 17 16 15 16 15 13 13 13 9 7 10 11 9 8 10 10 11 11 12 12 11 10 11 11 11 11 11 10 9 9 9 9 10 10 10 8 9 9 8 10 9
15 15 15 15 12 12 12 8 8 10 11 8 10 7 8 11 13 11 11 11 10 11 11 11 11 11 11 10 10 9 9 8 9 11 11 10 8 7 7 8 9 9
15 14 15 15 15 13 11 15 14 11 11 11 11 10 8 11 11 12 12 11 12 11 12 11 11 10 9 10 10 9 8 9 10 11 11 8 9 9 8 9 10 9
15 13 14 15 16 17 15 15 15 12 11 12 13 13 11 11 11 10 10 10 11 11 10 10 10 11 9 8 9 10 10 9 10 11 11 10 10 11 10 9 9 8
14 14 14 16 16 13 13 13 12 11 10 11 10 7 7 8 8 8 8 9 10 9 10 10 10 9 8 10 10 11 11 10 11 12 12 12 11 11 11 10 11 9
13 11 10 11 12 11 11 10 9 8 6 7 7 5 7 6 7 8 9 10 10 10 10 9 9 10 10 10 12 11 11 12 11 12 11 11 12 11 11 11 9 10
12 11 11 10 10 9 9 7 7 6 6 8 7 8 8 8 8 8 9 10 10 11 11 11 11 11 11 11 11 11 12 11 11 11 11 12 12 12 12 11 11 11
11 10 11 10 9 9 8 7 6 6 6 6 8 9 8 8 9 8 9 10 10 10 10 10 10 11 11 12 11 10 10 10 10 10 10 12 12 12 12 11 12 11
9 9 7 7 7 7 5 5 6 6 7 8 7 8 8 9 8 9 7 8 9 9 9 9 10 10 10 10 10 9 10 10 9 10 11 10 11 11 12 11 11 12
8 7 6 6 5 5 6 5 5 5 6 5 6 7 7 7 7 7 7 7 7 8 8 8 8 8 8 8 8 9 10 11 12 10 9 8 9 10 11 11 12 12
7 6 5 5 5 4 5 5 5 5 5 5 5 6 5 6 6 7 7 7 6 6 6 6 8 9 9 10 10 10 9 10 10 11 11 10 9 9 9 10 10 11
6 6 5 5 6 6 6 6 5 5 5 5 5 5 5 5 5 6 6 7 7 6 6 6 7 6 9 14 13 12 10 8 8 9 10 10 10 9 8 8 10 11
5 6 5 6 6 6 5 5 6 5 5 4 4 5 5 5 5 6 6 5 6 7 7 7 6 6 12 13 14 14 11 10 10 9 8 9 10 11 12 10 8 9
6 5 5 5 4 5 5 5 4 5 5 5 5 5 4 3 4 5 5 5 5 5 6 6 6 8 13 14 14 15 13 10 8 9 9 8 9 11 12 10 10 9
5 6 6 5 5 4 4 4 5 5 5 5 6 5 4 5 5 5 5 5 5 6 7 6 6 9 12 14 15 15 15 12 8 9 10 9 10 11 13 10 11 11
5 5 5 4 4 4 4 5 5 5 4 3 3 4 4 4 3 5 4 5 6 6 6 6 6 9 13 14 15 15 15 12 9 10 9 11 11 11 10 10 11 10
6 5 5 5 5 5 5 5 5 4 5 5 5 6 7 7 7 6 6 6 6 6 6 7 7 10 13 14 14 16 16 11 8 9 8 8 9 10 12 11 11 9
6 6 6 6 6 5 6 6 6 7 7 6 4 3 3 3 3 3 5 6 6 7 6 7 5 11 13 15 16 16 16 9 8 9 8 8 9 10 10 10 9 8
6 7 7 7 7 7 7 6 5 4 3 3 3 3 5 4 6 6 5 6 6 6 7 6 5 10 12 14 16 17 12 7 8 7 8 9 9 9 9 9 8 10
6 7 8 7 7 6 6 6 5 3 4 4 6 5 4 6 6 4 4 5 6 8 7 8 7 10 14 15 17 17 12 9 8 8 8 9 8 7 7 7 9 12
7 7 8 8 6 6 6 6 6 5 4 4 4 4 5 5 3 4 3 3 4 5 7 7 6 10 15 16 17 16 11 8 9 8 9 8 9 7 6 7 8 9
7 6 6 7 7 5 4 5 4 3 4 4 3 3 3 3 3 5 5 4 4 4 5 6 7 6 9 16 16 16 15 10 8 9 9 9 6 7 7 6 8 9
Wind_Direction
215 218 216 215 218 215 213 213 215 214 217 217 217 218 216 212 198 196 201 202 203 207 207 214 211 205 208 208 202 202 209 210 205 197 198 204 210 200 196 196 199 200
215 215 216 215 217 216 215 216 214 212 218 216 218 219 217 208 202 196 202 203 205 209 208 212 211 207 205 207 204 202 207 204 208 192 195 197 199 193 193 187 189 192
217 216 217 215 217 217 214 215 215 214 219 217 219 220 219 202 202 187 199 204 207 209 208 210 209 205 201 204 206 205 201 195 193 180 189 188 183 186 188 184 182 177
220 220 218 221 223 222 220 217 214 215 210 211 213 211 195 194 196 191 205 205 208 203 203 203 203 199 199 200 203 207 200 193 192 182 186 187 186 185 181 176 165 160
222 222 222 224 225 224 223 220 216 205 199 210 219 207 203 205 201 201 202 204 205 203 199 202 200 200 199 200 197 204 197 191 182 180 184 184 179 181 175 161 160 167
223 223 222 223 219 213 213 207 208 209 211 201 210 199 202 207 210 204 201 200 200 202 201 199 200 200 197 196 194 201 189 185 179 179 186 182 166 171 165 162 149 158
221 219 220 220 220 214 213 221 218 210 211 210 214 211 189 206 206 204 201 200 200 202 201 199 200 200 195 191 188 190 187 187 174 177 179 176 166 164 163 157 159 149
220 218 218 220 220 220 216 218 217 209 208 208 213 214 207 209 206 204 202 200 201 202 202 199 200 201 190 185 183 187 191 187 179 181 179 168 169 167 166 165 156 148
217 214 213 215 216 216 215 214 216 214 208 213 214 209 206 208 204 201 201 202 203 201 198 200 199 191 182 186 191 188 189 188 185 181 175 169 169 168 167 165 166 157
214 210 208 214 215 215 217 214 215 213 197 207 203 189 188 199 200 201 202 203 204 202 200 196 193 191 188 190 191 190 190 186 184 183 174 170 169 166 169 170 161 153
212 209 209 211 216 215 217 205 204 197 189 197 192 194 195 195 203 204 204 204 205 201 200 198 195 191 190 193 193 192 190 186 183 181 174 171 170 173 171 168 163 160
212 210 212 212 212 216 213 205 198 195 190 199 196 200 195 200 200 203 205 207 207 203 199 198 195 194 193 193 193 190 188 183 179 177 176 177 174 171 169 168 161 158
211 210 208 209 208 207 197 193 196 196 192 199 198 202 197 201 204 206 208 206 206 202 201 197 198 195 195 193 190 184 180 174 175 181 180 177 171 167 168 166 161 158
212 206 202 201 195 195 198 198 196 199 203 200 194 203 205 202 199 201 204 205 207 205 203 197 194 192 191 187 178 177 179 184 177 172 170 168 166 168 167 167 163 161
205 197 190 187 184 185 191 192 193 196 191 195 196 206 204 203 197 199 197 204 210 204 198 192 191 191 187 181 181 183 183 178 174 167 166 164 163 164 167 164 164 167
196 192 187 184 183 187 191 187 190 189 188 191 197 198 200 196 196 197 198 198 197 198 193 192 196 195 190 186 181 176 173 171 165 166 164 161 155 155 158 166 173 168
188 192 187 192 189 188 182 183 183 178 182 187 190 190 192 191 185 191 196 196 194 189 191 195 194 189 184 186 185 176 167 164 165 164 160 156 159 157 128 145 147 151
190 179 184 187 183 185 176 178 164 167 178 184 180 182 183 162 186 196 190 190 185 188 194 195 197 188 182 183 179 174 168 161 158 154 155 159 160 165 155 155 152 141
175 176 185 181 184 176 169 160 169 175 178 174 188 183 155 174 189 177 188 184 184 187 196 192 197 190 188 184 179 174 167 155 155 156 156 158 161 162 161 153 145 140
172 175 179 177 165 163 158 166 170 181 176 167 141 137 164 171 169 183 178 184 187 189 191 193 197 192 189 183 176 169 163 157 156 159 160 160 163 163 162 149 148 144
172 170 173 164 167 162 160 165 170 155 156 162 167 173 173 180 182 182 187 184 185 186 187 192 202 185 186 178 171 165 160 153 152 153 151 152 154 158 163 156 157 151
170 172 169 165 161 159 164 171 174 176 174 169 163 171 175 157 159 172 183 190 188 182 184 196 193 186 182 175 167 164 157 149 150 149 144 140 144 156 163 163 158 147
173 170 171 168 168 170 182 182 178 179 167 160 157 169 169 182 185 183 185 184 184 186 185 192 178 184 179 171 167 161 153 142 138 133 138 143 151 160 162 161 160 161
173 172 173 176 175 184 184 187 183 176 177 177 175 171 184 192 178 177 176 183 182 190 189 179 182 180 175 171 166 163 154 144 143 142 143 149 150 150 152 159 173 163
178 178 176 174 180 188 181 178 181 183 178 177 187 177 181 170 170 173 176 181 191 189 185 183 177 178 175 172 167 158 147 146 147 146 148 154 154 155 152 158 166 164
177 179 178 177 183 180 179 182 173 160 163 176 175 176 170 171 175 177 177 190 179 181 182 180 165 169 175 167 162 158 157 153 156 155 161 156 150 149 149 160 161 163